FW4441 Weather Reports


time (UTC)temp
F
wind
direction
speed
knots
gust
knots
rain 1hr
in
rain 24hr
in
rain mn
in
humidity
%
barometer
mb
20260507101531 52 248 6.1 12.2 0.00 0.00 0.00 81 1015.7
20260507100040 53 250 7.8 15.6 0.00 0.00 0.00 80 1015.7
20260507094531 53 252 8.7 16.5 0.00 0.00 0.00 80 1015.7
20260507093032 54 241 7.8 15.6 0.00 0.00 0.00 80 1015.7
20260507091530 54 244 7.8 15.6 0.00 0.00 0.00 80 1015.7
20260507090029 54 258 7.0 16.5 0.00 0.00 0.00 80 1015.8
20260507084530 54 233 5.2 12.2 0.00 0.00 0.00 80 1015.8
20260507081533 54 245 4.3 7.8 0.00 0.00 0.00 79 1015.8
20260507080029 54 240 2.6 6.1 0.00 0.00 0.00 79 1015.9
20260507074531 55 246 3.5 9.6 0.00 0.00 0.00 78 1016.0
20260507073032 56 255 5.2 11.3 0.00 0.00 0.00 78 1016.1
20260507071531 56 253 7.0 16.5 0.00 0.00 0.00 78 1016.1
20260507061530 57 240 5.2 11.3 0.00 0.00 0.00 78 1016.2
20260507060031 57 248 7.0 13.0 0.00 0.00 0.00 77 1016.2
20260507054607 58 252 8.7 15.6 0.00 0.00 0.00 77 1016.3
20260507053032 58 250 9.6 17.4 0.00 0.00 0.00 77 1016.5
20260507051530 58 248 7.8 17.4 0.00 0.00 0.00 76 1016.7
20260507050107 58 255 6.1 13.9 0.00 0.00 0.00 75 1016.7
20260507044531 58 264 7.0 16.5 0.00 0.00 0.00 74 1016.6
20260507043031 58 256 6.1 11.3 0.00 0.00 0.00 72 1016.6
20260507041530 58 303 6.1 11.3 0.00 0.00 0.00 68 1016.2
20260507034531 61 238 4.3 11.3 0.00 0.00 0.00 61 1016.0
20260507033029 62 206 5.2 10.4 0.00 0.00 0.00 59 1015.8
20260507031556 64 204 3.5 7.8 0.00 0.00 0.00 56 1015.6
20260507030035 66 215 5.2 10.4 0.00 0.00 0.00 53 1015.6
20260507024530 66 213 7.0 13.9 0.00 0.00 0.00 52 1015.5
20260507023029 67 219 7.0 14.8 0.00 0.00 0.00 52 1015.3
20260507021532 67 240 7.0 14.8 0.00 0.00 0.00 51 1015.3
20260507020032 68 251 9.6 13.9 0.00 0.00 0.00 50 1015.2
20260507014529 68 267 8.7 16.5 0.00 0.00 0.00 51 1015.1
20260507013029 68 270 9.6 19.1 0.00 0.00 0.00 50 1015.1
20260507010032 67 254 10.4 20.9 0.00 0.00 0.00 51 1015.1
20260507004530 67 269 10.4 20.9 0.00 0.00 0.00 52 1015.1
20260507003031 67 276 10.4 20.0 0.00 0.00 0.00 52 1015.0
20260507001531 67 273 10.4 20.9 0.00 0.00 0.00 53 1014.9
20260507000031 66 293 8.7 15.6 0.00 0.00 0.00 55 1014.9
20260506234531 67 300 10.4 16.5 0.00 0.00 0.00 54 1014.8
20260506233032 67 303 8.7 17.4 0.00 0.00 0.00 53 1014.9
20260506231530 67 298 9.6 20.9 0.00 0.00 0.00 52 1014.9
20260506230030 69 287 10.4 18.2 0.00 0.00 0.00 50 1015.0
20260506223031 74 288 10.4 19.1 0.00 0.00 0.00 47 1014.9
20260506221531 75 280 10.4 18.2 0.00 0.00 0.00 47 1014.9
20260506220033 74 275 11.3 21.7 0.00 0.00 0.00 48 1014.8
20260506214532 73 269 13.0 21.7 0.00 0.00 0.00 49 1014.9
20260506213106 73 278 11.3 21.7 0.00 0.00 0.00 50 1014.9
20260506210034 73 288 8.7 18.2 0.00 0.00 0.00 52 1015.0
20260506204531 72 299 9.6 18.2 0.00 0.00 0.00 52 1015.1
20260506203030 72 300 10.4 19.1 0.00 0.00 0.00 53 1015.4
20260506201540 72 286 11.3 21.7 0.00 0.00 0.00 53 1015.4
20260506200029 71 284 9.6 20.0 0.00 0.00 0.00 54 1015.5
20260506194535 70 277 11.3 23.5 0.00 0.00 0.00 55 1015.5
20260506193029 70 275 12.2 22.6 0.00 0.00 0.00 56 1015.5
20260506191532 69 277 11.3 23.5 0.00 0.00 0.00 58 1015.7
20260506190031 68 282 10.4 18.2 0.00 0.00 0.00 59 1015.7
20260506184608 69 264 13.0 21.7 0.00 0.00 0.00 59 1015.7
20260506183030 69 265 12.2 22.6 0.00 0.00 0.00 59 1015.5
20260506181530 68 268 10.4 24.3 0.00 0.00 0.00 60 1015.6
20260506173029 67 275 10.4 20.0 0.00 0.00 0.00 62 1015.8
20260506171530 68 263 9.6 20.0 0.00 0.00 0.00 62 1015.6
20260506170032 67 262 7.0 14.8 0.00 0.00 0.00 63 1015.6
20260506164529 67 267 7.8 14.8 0.00 0.00 0.00 65 1015.5
20260506163030 65 271 7.0 10.4 0.00 0.00 0.00 67 1015.7
20260506161531 64 277 7.8 20.0 0.00 0.00 0.00 68 1016.1
20260506154529 62 269 8.7 16.5 0.00 0.00 0.00 70 1015.8
20260506153029 62 258 8.7 15.6 0.00 0.00 0.00 72 1015.7
20260506151530 62 251 2.6 8.7 0.00 0.00 0.00 72 1015.7
20260506150031 62 255 0.0 2.6 0.00 0.00 0.00 73 1015.7
20260506144646 60 233 0.9 2.6 0.00 0.00 0.00 78 1015.8
20260506143030 57 222 0.0 2.6 0.00 0.00 0.00 81 1015.8
20260506141608 55 196 0.0 3.5 0.00 0.00 0.00 86 1015.7
20260506140106 52 156 1.7 4.3 0.00 0.00 0.00 88 1015.6
20260506134534 52 147 1.7 6.1 0.00 0.00 0.00 88 1015.5
20260506133029 51 156 2.6 5.2 0.00 0.00 0.00 90 1015.4
20260506131532 50 152 1.7 2.6 0.00 0.00 0.00 89 1015.3
20260506130031 50 62 1.7 5.2 0.00 0.00 0.00 89 1015.3
20260506123030 51 83 0.9 4.3 0.00 0.00 0.00 89 1015.0
20260506121533 51 40 0.9 2.6 0.00 0.00 0.00 89 1014.8
20260506120107 51 47 1.7 3.5 0.00 0.00 0.00 90 1014.8
20260506113031 50 93 0.9 2.6 0.00 0.00 0.00 90 1014.5
20260506110030 50 258 0.0 3.5 0.00 0.00 0.00 88 1014.1
20260506103030 52 17 0.0 3.5 0.00 0.00 0.00 88 1013.9